Location: Hurecourt
(47.9030°N, 6.0653°E)
Time: 04:03:25
(UTC+00:00)

Cosmos 1437 Rocket - Pass Details

Date: 14 July 2020
Orbit: 506 x 562 km, 81.2° (Epoch: 06 August)

Event Time Altitude Azimuth Distance (km) Brightness Sun altitude
Rises 00:29:37 0° 357° (N) 2,743 7.8 -19.6°
Reaches altitude 10° 00:32:02 10° 9° (N) 1,835 6.7 -19.5°
Maximum altitude 00:35:35 29° 70° (ENE) 1,022 4.5 -19.4°
Enters shadow 00:38:03 16° 122° (ESE) 1,458 4.8 -19.3°
